Station: Hindmarsh Island  

  Atmospheric Gas Attenuation - ITU Rec 676-11   ----------------- dB/100km -----------------
Date Time Temp RH % AH g/m3 Dew Point Wind Direction Speed kph Gust kph Barometer mB Rainfall Since 9am 24GHz 47GHz 76GHz 122GHz 134GHz 241GHz
03/09 16:40 14.5 67 8.33 8.5 22 26 1019 0.2 19.0 25.5 38.6 101.3 94.5 324.7
03/09 16:30 14.7 67 8.44 8.6 22 28 1019 0.2 19.2 25.6 39.0 102.2 95.6 328.9
03/09 16:20 14.7 65 8.18 8.2 22 28 1018.9 0.2 18.6 25.2 37.9 99.4 92.3 317.1
03/09 16:10 15 65 8.33 8.5 22 28 1018.9 0.2 19.0 25.3 38.4 100.6 93.8 322.6
03/09 16:00 15.3 65 8.49 8.8 22 26 1018.8 0.2 19.3 25.5 38.9 101.9 95.5 328.6
03/09 15:50 15.2 64 8.31 8.4 24 30 1018.8 0.2 18.9 25.2 38.2 100.1 93.3 320.9
03/09 15:40 15.7 65 8.7 9.1 20 26 1018.8 0.2 19.7 25.7 39.5 103.6 97.8 336.5
03/09 15:30 15.6 62 8.25 8.4 24 28 1018.7 0.2 18.8 25.0 37.8 99.0 92.1 316.6
03/09 15:20 15.2 60 7.79 7.5 24 30 1018.6 0.2 17.8 24.4 36.2 94.7 86.7 297.6
03/09 15:10 15.5 64 8.46 8.7 20 28 1018.6 0.2 19.2 25.4 38.6 101.3 94.9 326.4
03/09 15:00 15.3 63 8.23 8.3 22 26 1018.5 0.2 18.7 25.1 37.8 99.2 92.2 316.8
03/09 14:50 15.5 63 8.33 8.5 24 30 1018.5 0.2 18.9 25.2 38.1 99.9 93.2 320.5
03/09 14:40 15.2 61 7.92 7.7 26 30 1018.3 0.2 18.1 24.6 36.7 96.1 88.3 303.3
03/09 14:30 16.3 59 8.19 8.3 26 32 1018.3 0.2 18.6 24.7 37.2 97.5 90.5 311.0
03/09 14:20 15.9 60 8.13 8.2 28 32 1018.1 0.2 18.5 24.7 37.2 97.3 90.2 309.9
03/09 14:10 16.2 59 8.14 8.2 28 33 1018.1 0.2 18.5 24.7 37.1 97.1 90.0 309.2
03/09 14:00 15.7 62 8.3 8.4 28 35 1018.1 0.2 18.9 25.1 37.9 99.3 92.6 318.3
03/09 13:50 16 63 8.58 9 28 35 1018 0.2 19.4 25.4 38.8 101.9 95.8 329.6
03/09 13:40 16.2 62 8.55 8.9 30 35 1017.9 0.2 19.4 25.3 38.6 101.3 95.1 327.4
03/09 13:30 15.8 65 8.75 9.2 30 35 1017.9 0.2 19.8 25.7 39.6 103.9 98.2 338.1
03/09 13:20 16.2 66 9.1 9.8 28 35 1017.8 0.2 20.5 26.2 40.8 107.0 102.2 352.2
03/09 13:10 16.3 65 9.02 9.7 30 39 1017.8 0.2 20.4 26.0 40.4 106.1 101.1 348.1
03/09 13:00 16 65 8.86 9.4 32 41 1017.9 0 20.0 25.8 39.9 104.8 99.4 342.2
03/09 12:50 15.4 66 8.67 9.1 32 41 1017.9 0 19.7 25.7 39.5 103.6 97.7 336.1
03/09 12:40 15.9 64 8.67 9.1 32 39 1018 0 19.6 25.6 39.2 102.9 97.1 334.0
03/09 12:30 15.6 67 8.91 9.5 28 37 1018 0 20.2 26.0 40.3 105.9 100.6 346.2
03/09 12:20 14.9 69 8.79 9.3 30 35 1018 0 19.9 26.1 40.2 105.5 99.9 343.8
03/09 12:10 15.1 72 9.29 10.1 26 32 1018.2 0 21.0 26.8 42.1 110.6 106.3 366.1
03/09 12:00 14.9 72 9.18 9.9 28 35 1018.2 0 20.8 26.7 41.8 109.7 105.1 361.9
03/09 11:50 15.1 76 9.8 10.9 28 35 1018.1 0 22.1 27.7 44.2 116.2 113.1 390.1
03/09 11:40 14.9 74 9.43 10.3 33 46 1018 0 21.3 27.1 42.8 112.4 108.4 373.6
03/09 11:30 15.9 76 10.29 11.7 24 32 1018 0 23.1 28.2 45.8 120.4 118.6 409.3
03/09 11:20 15.8 77 10.36 11.8 24 30 1018 0 23.2 28.4 46.1 121.3 119.7 413.2
03/09 11:10 15.4 78 10.25 11.6 22 30 1018 0 23.0 28.3 45.9 120.7 118.8 410.0
03/09 11:00 15.7 76 10.17 11.5 24 32 1017.9 0 22.8 28.1 45.4 119.4 117.2 404.6
03/09 10:50 15.9 80 10.83 12.5 24 32 1017.8 0 24.2 29.1 48.0 126.4 126.0 435.3
03/09 10:40 15.7 80 10.7 12.3 28 35 1017.7 0 24.0 29.0 47.6 125.3 124.5 430.0
03/09 10:30 15.6 80 10.64 12.2 28 35 1017.7 0 23.8 28.9 47.4 124.7 123.9 427.7
03/09 10:20 15.2 82 10.64 12.2 24 33 1017.7 0 23.9 29.0 47.7 125.4 124.5 429.9
03/09 10:10 15.3 84 10.97 12.6 26 35 1017.7 0 24.6 29.6 49.0 129.0 129.0 445.5
03/09 10:00 14.9 85 10.83 12.4 28 37 1017.6 0 24.3 29.4 48.7 128.0 127.7 440.9
03/09 09:50 14.9 88 11.22 12.9 26 35 1017.5 0 25.1 30.1 50.3 132.5 133.2 460.2
03/09 09:40 14.4 88 10.88 12.4 32 43 1017.4 0 24.4 29.7 49.2 129.4 129.2 446.2
03/09 09:30 14.4 89 11 12.6 30 44 1017.3 0 24.7 29.9 49.7 130.8 130.9 452.1
03/09 09:20 14.8 91 11.53 13.3 17 26 1017.3 0 25.8 30.7 51.8 136.3 137.8 476.3
03/09 09:10 14.3 91 11.18 12.9 22 30 1017.3 0 25.1 30.3 50.5 133.1 133.6 461.7
03/09 09:00 14 93 11.22 12.9 19 28 1017.2 0 25.2 30.4 50.9 134.0 134.7 465.5
03/09 08:50 14 93 11.22 12.9 19 24 1017.1 0.4 25.2 30.4 50.9 134.0 134.7 465.5
03/09 08:40 13.9 92 11.03 12.6 24 32 1016.9 0.4 24.8 30.1 50.1 131.9 132.1 456.4
03/09 08:30 14.1 91 11.04 12.7 22 30 1016.8 0.4 24.8 30.1 50.0 131.7 131.9 455.7
03/09 08:20 14.6 86 10.76 12.3 30 37 1016.6 0.2 24.2 29.4 48.5 127.6 127.1 438.8
03/09 08:10 15.2 78 10.12 11.4 30 43 1016.3 0 22.8 28.1 45.4 119.4 117.2 404.3
03/09 08:00 15 78 10 11.2 30 44 1016 0 22.5 27.9 45.0 118.3 115.8 399.5
03/09 07:50 15.2 79 10.25 11.6 26 35 1015.8 0 23.0 28.3 45.9 120.8 118.9 410.4
03/09 07:40 14.8 80 10.13 11.4 26 35 1015.6 0 22.8 28.2 45.6 120.0 117.9 406.7
03/09 07:30 14.5 80 9.95 11.1 28 39 1015.5 0 22.4 28.0 45.1 118.5 115.8 399.5
03/09 07:20 14.3 80 9.83 10.9 24 35 1015.3 0 22.2 27.9 44.7 117.4 114.5 394.7
03/09 07:10 14.3 81 9.95 11.1 24 35 1015.4 0 22.5 28.1 45.2 118.8 116.1 400.5
03/09 07:00 14.2 82 10.01 11.2 26 39 1015.2 0 22.6 28.2 45.5 119.6 117.1 403.9
03/09 06:50 14.1 82 9.95 11.1 26 35 1015 0 22.5 28.1 45.3 119.0 116.4 401.4
03/09 06:40 14.1 82 9.95 11.1 24 39 1015.1 0 22.5 28.1 45.3 119.0 116.4 401.5
03/09 06:30 14 82 9.89 11 19 35 1015 0 22.3 28.0 45.1 118.5 115.7 399.0
03/09 06:20 13.9 81 9.71 10.7 17 26 1014.8 0 22.0 27.8 44.4 116.6 113.4 390.8
03/09 06:10 13.9 81 9.71 10.7 19 28 1014.7 0 22.0 27.8 44.4 116.6 113.3 390.8
03/09 06:00 13.7 82 9.71 10.7 17 28 1014.6 0 22.0 27.8 44.5 116.9 113.6 391.8
03/09 05:50 13.7 82 9.71 10.7 19 24 1014.5 0 22.0 27.8 44.5 116.9 113.6 391.7
03/09 05:40 13.8 81 9.65 10.6 24 33 1014.3 0 21.8 27.7 44.1 116.0 112.6 388.3
03/09 05:30 13.9 79 9.47 10.3 26 37 1014.1 0 21.4 27.3 43.3 113.9 110.0 379.1
03/09 05:20 14 79 9.53 10.4 20 26 1014 0 21.6 27.4 43.5 114.4 110.7 381.5
03/09 05:10 13.8 80 9.53 10.4 20 30 1013.9 0 21.6 27.4 43.6 114.7 111.0 382.4
03/09 05:00 13.8 80 9.53 10.4 22 37 1013.9 0 21.6 27.4 43.6 114.7 111.0 382.4
03/09 04:50 13.7 81 9.59 10.5 20 28 1013.9 0 21.7 27.6 43.9 115.5 111.9 385.8
03/09 04:40 13.6 81 9.53 10.4 22 30 1013.9 0 21.6 27.5 43.7 115.0 111.2 383.4
03/09 04:30 13.4 81 9.42 10.2 24 39 1013.8 0 21.4 27.4 43.4 114.0 110.0 379.1
03/09 04:20 13.1 81 9.24 9.9 26 39 1013.7 0 21.0 27.2 42.8 112.4 108.0 371.9
03/09 04:10 13.1 81 9.24 9.9 28 37 1013.5 0 21.0 27.2 42.8 112.4 108.0 371.8
03/09 04:00 13.2 80 9.19 9.8 32 43 1013.3 0 20.9 27.0 42.5 111.7 107.1 368.9
03/09 03:50 13.3 79 9.13 9.7 30 37 1013.1 0 20.7 26.9 42.2 110.9 106.1 365.5
03/09 03:40 13.5 77 9.01 9.6 32 43 1013.1 0 20.5 26.6 41.6 109.3 104.2 358.9
03/09 03:30 13.4 77 8.95 9.5 33 44 1013.3 0 20.4 26.6 41.4 108.8 103.6 356.6
03/09 03:20 13.3 77 8.9 9.4 32 41 1013.3 0 20.3 26.5 41.3 108.4 103.1 354.7
03/09 03:10 13.1 77 8.79 9.2 28 39 1013.4 0 20.0 26.4 40.9 107.5 101.8 350.5
03/09 03:00 13 76 8.62 8.9 28 39 1013.6 0 19.7 26.2 40.3 105.8 99.7 343.0
03/09 02:50 13 76 8.62 8.9 28 43 1013.7 0 19.7 26.2 40.3 105.8 99.7 343.0
03/09 02:40 12.9 76 8.57 8.8 26 39 1013.6 0 19.6 26.1 40.1 105.4 99.2 341.1
03/09 02:30 12.8 77 8.63 8.9 26 35 1013.5 0 19.7 26.2 40.4 106.1 100.1 344.3
03/09 02:20 12.7 77 8.57 8.8 28 41 1013.6 0 19.6 26.2 40.2 105.6 99.4 342.0
03/09 02:10 12.7 77 8.57 8.8 26 41 1013.6 0 19.6 26.2 40.2 105.6 99.4 342.0
03/09 02:00 12.5 78 8.58 8.8 24 33 1013.7 0 19.6 26.3 40.4 106.0 99.8 343.3
03/09 01:50 12.5 77 8.47 8.6 24 32 1013.8 0 19.4 26.1 40.0 104.8 98.4 338.2
03/09 01:40 12.7 77 8.57 8.8 24 35 1013.9 0 19.6 26.2 40.3 105.7 99.5 342.0
03/09 01:30 12.6 76 8.41 8.5 22 32 1014 0 19.2 26.0 39.7 104.1 97.5 335.0
03/09 01:20 12.7 74 8.24 8.2 22 32 1014.1 0 18.9 25.7 38.9 102.1 95.1 326.7
03/09 01:10 12.9 74 8.34 8.4 22 32 1014.2 0 19.1 25.8 39.2 102.9 96.2 330.5
03/09 01:00 13 74 8.39 8.5 28 35 1014.2 0 19.2 25.8 39.4 103.4 96.7 332.4
03/09 00:50 12.8 75 8.4 8.5 26 35 1014.1 0 19.2 25.9 39.5 103.7 97.1 333.7
03/09 00:40 12.8 74 8.29 8.3 24 35 1014 0 19.0 25.7 39.1 102.5 95.6 328.6
03/09 00:30 12.7 74 8.24 8.2 24 39 1014 0 18.9 25.7 38.9 102.1 95.1 326.7
03/09 00:20 12.7 74 8.24 8.2 26 37 1014.1 0 18.9 25.7 38.9 102.1 95.1 326.7
03/09 00:10 12.7 75 8.35 8.4 24 33 1014.3 0 19.1 25.8 39.4 103.3 96.6 331.9

Last Refresh: 03-Sep-2026 16:52:12

Bureau of Meteorology